Location: Alsip
(41.6689°N, 87.7387°W)
Time: 06:50:14
(UTC+00:00)

Cosmos 1833 Rocket - Pass Details

Date: 14 July 2020
Orbit: 832 x 840 km, 71.0° (Epoch: 04 August)

Event Time Altitude Azimuth Distance (km) Brightness Sun altitude
Exits shadow 09:13:28 10° 262° (W) 2,449 4.6 -12.1°
Reaches altitude 10° 09:13:30 10° 262° (W) 2,440 4.6 -12.1°
Maximum altitude 09:17:35 20° 309° (NW) 1,820 4.4 -11.6°
Drops below altitude 10° 09:21:43 10° 357° (N) 2,453 5.7 -11.0°
Sets 09:24:49 0° 13° (NNE) 3,392 6.8 -10.6°
